STARLINK-36046 (66810 NORAD) Tracking and Keplerian Element Data

This shows tracking and keplerian element data for the satellite.

Feedback or suggestion? Click here.




ElementValue
Catalog66810
NameSTARLINK-36046
Epoch Orbit393
Epoch Day354.25003472
Epoch Year2025
RAAN206.3908
Inclination42.9995
Eccentricity0.0001402
Argument of Perigee255.4755
Mean Anonmoly1.6388
Mean Motion15.63547161
Decay Rate-0.01990694
L11 66810U 25278V 25354.25003472 -.01990694 00000+0 -23733-1 0 9995
L22 66810 42.9995 206.3908 0001402 255.4755 1.6388 15.63547161 3939



Live tracking and technical data element details for STARLINK-36046 (NORAD 66810). STARLINK-36046 can be tracked NOW for your location showing map with azimuth and elevation plus other details from your city location.







IsCatalogInMostPopularTable: catalog: 66810, numindb: 10
Update: records affected: 1



GetName: 66810 STARLINK-36046

Hit Count: updated at: Sat, 07 Feb 2026 07:16:12 GMT